Theta_e
284 283 282 281 280 279 278 277 276 275 274 274 273 273 273 272 272 272 271 271 271 270 270 270 270 270 269 269 269 269 269 269 269 269 269 269 269 269 269 270 270 270 271 271 271 271 271 271 271 271 271 271 271 271 271 271 271 271 271 271 271 272 272 272 273 274 274 275 275 276 276 276 278 279 280 281 281 281 280 281 281 282 284 284 285
285 284 282 281 280 279 278 277 276 275 274 274 273 273 272 272 272 271 271 271 270 270 270 270 269 269 269 269 269 269 269 269 269 269 269 269 269 269 269 269 270 270 271 271 271 271 271 270 270 270 270 270 270 271 271 271 271 271 271 271 271 271 272 272 273 273 273 274 275 275 276 275 276 278 280 280 281 281 280 280 280 281 281 282 283
286 284 282 281 280 279 278 277 276 275 274 273 273 272 272 272 271 271 271 270 270 270 270 269 269 269 269 269 269 268 269 268 268 268 268 268 268 268 269 269 270 270 271 271 271 271 271 270 270 270 270 270 270 270 270 270 270 271 271 271 271 271 271 271 272 272 273 273 274 275 275 275 276 277 278 280 280 280 280 280 280 280 280 280 281
286 284 282 281 280 279 278 276 275 274 274 273 272 272 272 271 271 271 271 270 270 270 269 269 269 269 268 268 268 268 268 268 268 268 268 268 268 268 268 269 269 270 270 271 271 271 270 270 270 270 270 270 270 270 270 270 270 270 270 270 270 271 271 271 271 271 272 273 273 274 275 275 275 275 277 279 280 279 279 280 280 280 279 279 280
286 284 282 281 280 278 277 276 275 274 273 273 272 272 271 271 271 271 270 270 270 270 269 269 269 268 268 268 268 268 268 268 268 268 268 268 268 268 268 268 269 269 270 270 270 270 270 270 270 270 270 270 270 270 270 270 270 270 270 270 270 270 270 270 271 271 271 272 273 273 274 274 275 275 276 278 279 279 279 280 280 279 279 280 280
285 284 282 281 280 278 277 276 275 274 273 272 272 272 271 271 270 270 270 270 269 269 269 269 268 268 268 268 268 268 268 267 267 267 267 267 267 267 267 268 268 269 269 269 270 270 270 270 270 270 270 270 270 270 270 270 270 270 270 270 270 270 270 270 270 270 271 271 272 273 273 274 274 275 275 277 279 279 280 280 279 279 279 280 280
285 284 282 281 279 278 277 276 275 274 273 272 272 271 271 271 270 270 270 269 269 269 269 268 268 268 268 268 267 267 267 267 267 267 267 267 267 267 267 267 268 268 269 269 269 269 269 269 269 269 269 269 269 269 270 270 269 269 269 269 270 270 270 270 270 270 270 271 272 272 273 274 274 274 275 276 277 279 279 280 280 280 280 280 280
285 284 282 281 279 278 277 276 275 274 273 272 271 271 271 270 270 270 269 269 269 268 268 268 268 268 267 267 267 267 267 267 267 267 267 267 267 266 267 267 267 268 268 268 268 268 268 269 268 269 269 270 270 270 270 269 269 269 269 269 269 269 269 270 270 270 270 271 271 272 273 273 274 274 275 275 276 278 279 279 280 280 280 280 280
284 283 282 280 279 278 276 275 274 273 272 272 271 271 270 270 270 269 269 269 268 268 268 268 267 267 267 267 267 267 266 266 266 266 266 266 266 266 266 267 267 267 268 268 268 268 268 268 268 269 270 271 271 271 270 270 270 270 270 269 269 269 269 270 270 270 270 271 271 271 272 273 273 274 275 275 276 278 279 279 280 280 280 280 280
284 283 281 280 279 277 276 275 274 273 272 271 271 270 270 270 269 269 269 268 268 268 267 267 267 267 267 266 266 266 266 266 266 266 266 266 265 265 266 266 267 267 267 268 268 268 268 268 269 271 272 272 272 271 271 271 271 270 270 270 269 269 269 270 270 270 270 270 271 271 272 272 273 274 274 275 276 277 278 279 279 279 280 280 280
283 282 281 280 278 277 275 274 273 272 271 271 271 270 270 269 269 269 268 268 268 267 267 267 266 266 266 266 266 266 265 265 265 266 266 267 266 266 265 266 266 266 267 267 268 268 268 269 269 271 272 272 272 272 272 272 272 272 272 271 270 270 270 270 270 270 270 270 271 271 272 272 273 273 274 275 275 276 277 278 278 279 279 280 280
282 281 280 279 278 276 275 274 273 272 271 271 270 270 269 269 268 268 268 267 267 267 267 266 266 266 266 265 265 265 265 265 265 266 266 267 268 267 266 266 266 267 267 267 268 269 269 270 270 271 272 273 273 273 273 273 273 273 273 273 272 271 270 270 270 270 270 270 270 271 271 271 272 273 273 274 275 275 276 277 277 278 279 279 279
282 280 280 279 277 276 275 274 273 272 271 270 270 269 269 269 268 268 268 267 267 266 266 266 266 265 265 265 264 264 264 264 265 266 266 267 268 269 268 268 267 268 268 268 269 269 270 271 271 271 272 274 274 274 274 274 274 274 274 274 274 273 272 271 271 271 271 270 270 270 271 271 271 272 272 273 274 274 275 276 276 277 278 278 279
281 280 279 278 277 277 275 274 273 271 271 270 269 269 269 268 268 268 267 267 266 266 266 266 265 265 264 264 264 264 263 264 264 265 266 267 268 269 269 269 269 269 269 269 270 270 271 271 272 273 274 275 275 275 275 275 275 274 274 274 274 274 274 273 273 272 271 271 271 271 270 271 271 271 272 272 272 273 274 275 275 276 277 277 278
280 280 279 278 278 277 276 274 273 271 270 270 269 269 268 268 268 267 267 266 266 266 266 265 265 264 264 263 263 263 263 263 264 265 266 267 268 269 269 270 270 270 270 270 271 271 272 272 273 274 275 275 276 276 275 275 275 275 274 274 274 274 274 274 274 273 273 272 271 271 271 271 271 271 271 271 271 272 273 273 274 275 275 276 276
280 279 279 278 278 277 276 274 273 271 270 269 269 268 268 267 267 267 266 266 266 265 265 265 264 264 263 263 263 262 262 263 264 265 266 267 268 268 269 269 270 270 271 271 271 272 272 273 274 274 275 276 276 276 275 276 275 275 274 274 274 273 273 273 274 274 274 273 273 272 272 272 272 272 272 271 271 271 272 273 273 274 274 275 275
279 279 279 278 277 276 276 274 273 271 270 269 269 268 268 267 267 267 266 265 265 265 264 264 264 263 263 262 262 262 262 262 263 264 266 267 268 268 269 269 270 270 271 271 272 273 273 273 274 275 276 276 276 276 276 276 275 275 274 274 273 273 273 274 274 274 274 274 274 274 273 273 273 273 273 273 273 272 272 273 273 274 274 274 275
278 278 278 277 276 276 275 274 273 271 270 269 269 268 267 267 267 266 266 265 265 264 264 264 263 263 262 262 262 262 262 262 263 264 265 267 268 268 269 270 270 271 272 272 273 273 274 274 275 275 276 276 276 276 276 276 276 275 274 273 273 273 274 274 274 274 274 274 274 275 275 275 275 274 274 274 274 274 274 274 274 274 274 275 275
278 278 277 276 275 274 274 274 273 271 270 269 269 268 267 267 266 266 265 265 264 264 264 263 263 263 262 262 261 262 262 262 262 264 266 267 268 269 269 270 271 272 272 273 273 274 274 275 275 275 275 276 276 276 276 277 276 276 275 274 273 273 274 274 275 275 274 274 274 274 274 275 275 275 275 275 275 275 275 274 274 275 275 275 275
276 276 275 274 274 273 273 273 272 271 270 269 268 268 267 267 266 265 265 264 264 264 263 263 263 262 262 262 261 261 262 262 262 264 266 267 269 270 270 271 272 272 273 274 274 275 274 274 274 275 275 275 276 276 276 277 277 277 276 275 274 274 275 275 275 275 274 274 275 275 274 274 275 275 275 276 276 276 276 275 275 275 275 275 276
274 273 273 273 272 272 272 272 272 271 270 269 268 267 267 266 266 265 264 264 263 263 263 262 262 262 262 262 262 261 262 262 263 264 266 267 269 270 271 272 272 273 274 274 274 274 274 274 274 274 274 274 275 275 276 276 277 277 277 276 276 276 276 276 275 275 274 274 275 274 274 274 274 274 275 275 275 276 276 276 276 276 275 276 276
271 271 271 271 271 271 271 272 271 270 269 268 268 267 266 266 265 264 264 263 263 262 262 262 261 261 261 261 262 262 262 263 263 264 266 267 269 270 271 272 272 273 274 274 274 274 274 274 274 274 273 274 274 275 275 276 276 277 277 277 277 277 277 276 276 276 275 275 275 274 274 274 274 274 274 275 275 276 276 276 276 276 276 276 276
270 270 270 270 270 270 271 271 270 269 269 268 267 266 265 265 264 264 263 263 262 262 261 261 261 261 261 261 262 262 263 264 265 265 266 267 268 270 271 272 273 273 273 273 273 273 273 273 273 274 274 274 275 275 275 276 276 276 277 277 277 277 277 277 277 277 276 276 276 275 275 275 275 275 275 275 275 276 276 276 276 276 276 276 276
268 268 268 268 269 269 270 270 269 269 268 267 266 266 265 264 263 263 262 262 262 262 261 261 261 261 261 262 263 263 264 265 266 266 267 268 269 271 272 273 274 274 273 273 273 273 273 273 273 273 274 274 275 275 275 276 276 276 276 276 276 276 276 276 277 277 277 277 277 276 276 276 276 276 275 276 276 276 276 276 276 276 276 276 276
267 267 267 267 267 268 269 269 268 268 267 266 266 265 264 263 263 262 262 262 262 261 261 261 261 261 262 263 264 265 265 266 267 267 268 269 270 271 272 272 273 273 273 273 273 273 273 273 273 273 274 274 274 275 275 275 275 275 275 275 275 275 274 274 275 276 277 277 277 277 277 277 276 276 276 276 276 275 275 275 275 275 275 275 276
265 266 266 266 266 268 269 268 267 267 266 266 265 264 264 263 262 262 262 261 261 261 261 261 261 262 263 264 265 265 266 267 267 268 269 269 270 270 270 271 271 272 272 272 272 273 273 273 273 273 273 274 274 274 273 273 273 273 273 273 273 273 273 273 274 274 275 276 277 277 277 277 277 277 276 276 276 276 275 275 275 275 274 274 274
264 265 265 265 266 267 268 268 266 266 265 265 264 264 263 263 262 262 261 261 261 261 261 261 262 263 264 265 265 266 267 268 268 269 269 269 269 269 270 270 270 271 271 272 272 272 272 272 272 272 272 272 272 272 271 272 272 271 271 271 271 271 272 272 273 273 274 275 275 276 276 276 276 276 277 276 276 276 275 275 275 275 275 274 274
263 263 264 265 266 267 268 267 266 265 264 264 264 263 263 262 262 262 262 261 261 261 261 262 263 264 265 265 266 267 268 268 269 269 269 269 269 269 269 270 270 270 271 271 271 271 271 271 271 271 271 271 270 270 270 270 270 270 270 270 270 270 271 271 272 273 273 274 274 275 275 276 276 276 277 277 276 276 276 275 275 275 275 274 274
262 263 264 264 265 267 267 266 265 265 264 263 263 263 262 262 262 262 261 261 261 262 262 262 263 264 265 266 267 268 269 269 268 268 269 269 269 269 269 270 270 271 271 271 271 271 270 270 270 270 270 270 270 270 269 269 269 269 269 269 269 269 270 270 271 272 272 273 273 274 274 275 275 276 276 277 277 277 276 276 275 276 275 274 274
261 262 263 264 265 266 267 266 265 264 264 263 262 262 262 262 262 262 262 262 262 262 263 263 263 264 264 266 267 268 269 269 269 269 269 269 270 270 270 271 271 271 271 272 271 270 269 269 269 269 269 269 269 269 268 267 267 267 267 267 267 267 268 269 269 269 270 270 271 272 273 274 274 275 275 276 276 277 277 276 276 276 276 275 275
261 262 263 264 265 266 266 266 265 264 263 263 262 262 262 261 262 262 262 262 262 262 263 264 264 265 265 266 267 268 268 269 269 270 270 270 271 271 271 271 271 271 271 271 270 269 268 269 268 268 267 267 267 266 265 265 264 264 264 265 265 266 266 266 266 266 267 268 269 271 272 272 273 274 274 275 276 276 277 277 276 276 276 276 276
261 262 263 264 265 265 266 265 264 263 263 262 262 262 262 262 262 263 263 264 263 263 264 265 266 267 267 267 267 267 268 269 269 270 270 270 271 271 271 271 270 270 269 269 268 267 267 268 267 266 265 265 264 263 263 263 262 262 262 263 264 264 264 264 265 265 266 267 268 270 270 271 272 272 273 274 275 275 276 277 277 277 276 276 277
261 262 263 263 264 265 265 265 263 263 263 262 262 262 262 262 263 263 264 264 265 265 266 267 267 268 269 269 269 268 269 269 269 270 270 270 270 270 270 270 269 269 268 268 268 266 265 265 265 263 263 263 262 262 262 261 261 261 261 262 263 263 262 263 264 265 265 266 267 268 268 269 270 271 271 272 273 274 275 276 277 277 277 277 277
261 261 262 263 264 265 265 264 263 263 262 262 262 262 262 262 262 263 264 264 265 266 267 267 268 268 269 270 270 270 269 269 269 270 270 269 269 269 269 268 268 268 268 267 266 265 264 263 262 262 261 261 261 261 261 260 260 260 261 261 261 261 261 262 263 263 264 265 265 266 266 267 267 268 269 270 271 272 274 275 276 277 278 278 278
260 261 262 263 263 264 265 264 263 262 262 262 261 261 261 261 261 262 263 264 265 266 266 266 267 267 267 268 269 269 268 268 269 269 269 268 268 268 267 267 266 266 265 264 264 263 262 262 261 261 261 260 260 260 260 259 259 259 260 260 260 260 260 261 262 262 262 263 263 264 264 265 265 266 267 268 269 270 272 273 274 275 277 278 278
260 261 262 262 263 264 264 263 262 262 261 261 261 261 261 261 261 262 262 263 264 266 266 265 265 266 266 266 267 268 268 268 268 268 267 267 267 266 266 266 265 264 263 262 261 261 261 261 260 260 260 259 259 259 259 258 258 258 259 259 259 260 260 261 261 260 261 261 262 262 262 263 264 264 265 266 267 269 270 271 272 273 275 276 277
260 261 261 261 262 263 263 262 262 261 261 260 260 260 260 261 261 261 262 262 263 264 264 264 264 265 265 265 265 266 267 267 267 266 266 265 265 265 264 264 263 262 261 260 260 260 260 259 259 259 259 258 258 258 258 258 258 258 258 259 259 259 260 260 260 260 260 260 260 261 261 262 263 263 263 265 266 268 269 269 270 272 273 273 274
260 260 260 261 261 262 262 261 261 260 260 260 260 260 260 260 261 261 261 262 263 263 263 263 264 264 264 264 264 265 265 265 265 264 264 264 264 263 263 262 262 261 260 259 259 259 259 258 258 258 258 258 258 258 258 258 258 258 258 258 258 259 259 259 259 260 260 259 259 260 260 260 261 261 262 263 264 266 267 268 269 270 271 272 273
259 260 260 260 260 261 261 261 260 260 260 260 260 260 260 260 260 261 261 261 262 262 263 263 263 263 263 263 263 263 264 264 264 263 263 263 262 262 262 261 260 260 259 258 258 258 258 257 257 258 258 258 258 258 258 258 258 258 259 258 258 259 259 259 259 259 259 259 259 259 259 260 260 260 261 262 263 264 265 266 267 268 269 270 271
259 259 260 260 260 260 260 260 260 260 260 260 260 260 260 260 260 261 261 261 262 262 262 262 263 262 262 262 262 262 263 263 263 262 262 262 261 261 261 260 259 259 259 258 258 257 257 257 258 258 258 258 259 259 259 259 259 259 258 258 258 258 259 259 259 259 259 259 259 259 259 259 260 260 261 262 263 263 264 265 266 267 268 268 269
258 259 259 260 260 260 260 260 260 259 259 260 259 259 260 260 260 260 261 261 261 261 261 262 262 261 261 261 261 261 262 262 262 261 261 261 260 260 260 259 259 259 259 258 258 258 257 258 258 258 258 259 259 259 259 260 259 258 258 258 258 258 258 258 259 259 259 259 259 259 259 260 260 260 261 261 262 262 263 264 265 266 267 267 268
258 259 259 259 260 260 260 260 260 259 259 259 259 259 260 260 260 260 260 260 261 261 261 261 261 261 261 261 262 262 262 261 261 260 260 260 259 259 259 259 258 258 258 258 258 258 258 258 258 258 258 258 259 259 259 259 259 259 259 259 258 258 258 258 259 260 260 259 259 260 260 261 260 260 261 261 261 262 262 263 264 265 266 267 267
258 258 259 259 259 259 259 259 259 259 259 259 259 259 259 259 260 260 260 260 260 261 261 261 261 261 261 261 261 262 262 261 261 260 259 259 259 258 258 258 258 258 258 258 258 258 258 257 258 258 258 258 258 258 258 259 259 259 258 258 258 258 258 258 259 260 260 259 259 260 260 260 260 260 260 261 261 261 262 262 263 264 265 266 267
258 258 258 259 259 259 259 259 259 260 260 259 259 259 259 260 260 260 260 260 260 260 260 261 261 260 260 260 260 261 261 261 260 260 259 259 258 258 258 258 258 257 257 257 257 257 257 257 257 257 257 258 258 258 258 258 258 258 258 258 258 258 258 259 259 259 260 260 260 260 260 260 260 260 260 260 261 261 261 262 262 263 264 265 266
258 258 258 258 258 259 259 259 259 259 259 260 260 260 260 260 260 260 260 260 260 260 260 260 260 260 260 260 260 260 260 260 260 259 259 258 258 258 258 257 257 257 257 257 257 257 257 257 257 257 257 257 257 257 258 258 258 258 258 258 258 257 258 258 258 259 259 260 260 260 260 260 260 260 260 260 261 261 261 262 262 262 263 264 265
257 258 258 258 258 258 259 259 259 259 259 259 260 260 260 260 260 260 260 260 260 260 260 260 260 260 260 260 260 260 260 260 259 259 259 258 258 257 257 257 257 257 257 256 257 256 256 256 256 256 256 256 256 257 257 257 257 257 257 257 257 258 258 258 258 258 259 259 259 260 260 260 260 260 261 261 261 261 261 262 262 262 263 264 264
257 257 258 258 258 258 258 258 259 259 259 259 259 259 259 259 259 259 259 259 259 259 260 259 260 260 260 260 260 260 260 259 259 259 259 258 257 257 257 257 256 256 256 256 256 256 256 256 256 256 256 256 256 256 256 256 256 256 257 257 257 257 257 257 258 258 258 259 259 259 260 260 260 261 261 261 261 261 262 262 262 262 263 263 263
257 257 257 257 257 258 258 258 258 258 258 259 259 259 259 259 259 259 259 259 259 259 259 259 259 259 259 259 259 260 259 259 259 258 258 258 257 257 257 256 256 256 256 256 256 256 256 256 256 256 256 256 256 256 256 256 256 256 256 256 256 257 257 257 257 258 258 258 258 259 259 260 260 260 261 261 262 262 262 263 262 262 262 262 263
256 256 257 257 257 257 257 257 258 258 258 258 258 258 258 258 259 259 259 259 259 259 259 259 259 259 259 259 259 259 259 259 259 258 258 257 257 257 256 256 256 256 255 255 255 256 256 256 256 256 256 256 256 256 256 256 256 256 256 256 256 256 257 257 257 258 258 258 258 258 259 259 260 260 261 261 262 262 262 263 263 262 262 262 263
255 256 256 256 256 257 257 257 257 257 257 257 258 258 258 258 258 258 258 258 258 258 258 258 258 258 258 258 258 259 259 259 258 258 258 257 257 256 256 256 256 255 255 255 255 255 255 255 255 255 255 256 256 256 256 256 256 256 256 257 257 257 257 257 257 257 257 258 258 258 259 259 260 260 260 261 261 262 262 262 263 263 263 263 263
254 255 255 255 255 256 256 256 256 256 256 256 257 257 257 257 257 257 257 257 257 257 257 257 257 257 257 258 258 258 258 258 258 258 258 257 257 256 256 256 255 255 255 255 255 255 255 255 255 255 255 255 255 255 255 256 256 256 256 257 257 257 257 257 257 257 257 257 257 258 258 258 259 260 260 260 261 261 262 262 262 263 263 263 263
Wind_Speed
28 28 31 33 34 35 34 34 34 35 37 37 35 33 32 31 29 25 22 19 17 17 18 19 19 19 18 18 18 17 17 17 17 17 16 16 15 14 14 14 15 15 15 15 15 14 14 14 14 13 12 12 12 12 12 11 12 12 12 13 14 14 15 14 11 9 11 15 16 14 12 14 15 12 10 8 5 4 3 3 3 2 2 2 1
29 29 29 29 32 36 36 33 32 34 36 37 36 31 30 31 29 25 23 20 18 18 19 19 19 19 18 18 18 17 18 18 17 17 16 16 15 14 14 14 15 16 16 16 15 15 15 15 15 14 13 13 13 13 13 13 13 13 14 13 14 14 14 14 13 11 10 14 17 16 12 12 14 14 11 9 7 5 4 3 4 3 3 3 3
30 30 30 30 32 34 35 32 32 33 34 36 36 32 30 30 28 25 23 19 18 18 19 19 19 19 19 18 18 18 18 18 18 17 17 16 16 15 15 15 15 16 17 17 17 16 16 16 16 14 14 15 15 14 14 15 14 14 15 14 14 15 14 14 14 13 12 12 16 17 13 10 12 15 13 10 8 6 6 5 3 2 3 4 4
29 29 30 32 31 30 32 32 32 33 33 34 35 33 31 29 28 26 23 19 17 18 18 19 19 20 19 19 18 18 18 18 18 18 17 17 16 16 15 15 16 17 17 17 17 16 16 16 16 15 14 15 15 15 14 15 15 15 15 15 15 16 16 15 15 15 14 13 14 18 16 11 12 15 16 13 8 8 8 6 5 4 3 3 3
28 28 28 31 31 28 30 31 31 33 34 33 33 32 31 29 28 27 24 20 18 17 18 19 19 20 20 19 19 19 19 19 19 18 17 16 16 16 15 16 17 16 16 16 16 15 15 16 15 14 14 14 14 14 15 16 16 15 15 15 15 16 16 17 17 16 16 15 14 17 18 13 11 14 15 14 11 9 8 8 8 6 4 3 3
26 27 26 29 30 28 28 30 31 33 33 32 30 30 30 29 27 26 24 20 18 18 18 19 19 20 20 19 19 19 19 18 18 18 17 16 16 16 16 16 16 16 15 15 15 14 14 14 13 13 13 14 14 13 14 15 16 16 16 16 15 15 16 16 18 17 17 17 15 16 18 16 13 12 13 13 11 9 9 8 8 7 6 5 4
25 26 26 29 30 27 27 30 31 32 31 30 29 29 29 28 26 25 22 19 18 18 18 19 19 19 19 19 19 19 18 18 18 18 17 17 17 17 16 15 15 14 14 14 14 14 13 13 13 14 16 18 18 17 14 14 14 15 16 16 16 16 16 16 17 17 18 17 16 15 17 17 15 13 13 14 13 11 9 7 6 6 7 6 5
25 26 27 28 29 28 29 30 30 29 29 29 28 28 28 26 25 23 21 18 18 18 18 19 19 18 18 18 18 18 18 18 19 19 18 17 16 15 14 14 14 13 13 13 14 15 15 17 19 21 22 22 22 22 20 17 16 15 14 14 15 15 16 16 16 16 17 17 17 16 16 17 15 13 13 13 13 10 8 7 7 7 6 6 5
23 24 26 28 29 30 30 29 27 27 27 27 27 27 27 25 24 23 20 18 18 18 18 18 18 18 17 17 17 17 18 19 19 18 17 15 14 14 13 13 14 13 12 13 14 16 17 19 22 23 22 22 22 22 22 21 20 17 13 13 14 15 15 16 16 16 16 16 17 17 17 17 15 13 12 12 11 10 9 8 8 7 7 7 6
20 21 24 27 30 31 31 29 26 25 25 26 26 26 26 25 24 23 20 18 18 17 16 17 17 17 17 17 18 18 19 19 18 17 16 15 15 14 13 13 13 13 12 12 13 15 17 19 21 20 19 20 21 21 22 23 24 22 17 15 15 14 14 15 16 16 16 16 17 17 16 17 16 14 14 14 13 11 9 8 7 7 8 8 7
18 20 23 27 28 29 29 28 26 24 25 26 26 26 25 24 24 22 19 18 17 16 16 16 17 17 18 19 19 19 19 18 17 18 18 18 18 17 16 14 13 13 14 14 14 14 15 17 19 20 20 20 20 21 23 24 25 26 23 20 19 17 16 16 16 16 16 16 17 17 17 17 18 16 16 16 14 12 10 10 10 10 9 8 8
18 20 24 26 26 27 28 27 25 24 25 25 26 25 25 24 23 21 19 18 16 16 16 17 17 17 18 18 19 19 19 17 17 19 20 20 20 20 21 20 17 16 16 16 16 15 15 16 17 20 20 19 19 21 22 23 24 26 25 24 24 24 21 19 18 18 18 17 17 18 18 18 19 19 18 17 15 13 12 12 12 11 11 10 11
20 21 24 25 25 27 28 26 25 25 25 26 26 25 25 24 23 21 20 18 16 15 16 16 16 16 16 16 16 16 16 17 19 20 20 21 21 21 22 23 23 22 21 19 18 17 16 16 16 18 18 16 17 19 19 20 21 22 23 23 24 27 27 27 25 22 21 20 19 19 20 20 19 20 20 18 15 13 13 14 13 13 14 14 13
22 25 25 23 24 27 28 27 25 25 26 26 25 25 25 25 23 22 20 17 16 16 16 15 15 14 14 16 17 17 18 19 20 21 20 20 21 20 21 21 23 24 24 22 20 18 18 17 15 16 16 16 17 17 17 18 18 18 20 22 23 23 25 28 29 28 26 24 23 23 24 24 22 21 21 20 18 16 15 15 15 15 15 16 15
26 28 26 23 23 26 28 27 26 25 26 26 26 26 26 25 23 22 20 18 17 16 16 15 15 13 15 19 20 20 22 22 20 20 21 20 20 20 20 20 20 21 20 20 19 18 18 18 17 16 16 16 16 15 15 17 18 19 20 22 23 23 22 23 25 26 28 28 28 28 29 28 26 25 23 22 22 21 19 17 16 16 17 18 18
27 30 30 27 25 26 28 27 26 25 25 26 27 27 26 25 24 22 19 17 15 14 14 13 13 13 16 19 20 21 24 23 19 20 20 20 19 19 19 19 19 20 19 19 19 19 19 19 19 18 17 16 16 15 14 15 17 19 20 21 22 24 26 25 23 23 25 26 28 30 32 31 28 26 24 22 21 21 19 18 17 16 16 17 18
29 31 32 28 25 28 31 28 26 25 25 26 28 28 27 25 24 22 20 17 15 13 12 10 11 12 16 19 20 21 23 22 20 20 20 20 20 19 18 18 18 19 20 19 19 20 20 20 19 19 17 15 14 15 15 15 16 18 19 20 21 22 24 25 25 25 25 25 26 27 28 27 25 24 23 21 21 19 17 16 16 16 16 14 14
33 32 29 26 27 32 34 30 27 26 25 27 29 29 26 24 23 22 21 18 15 12 11 9 9 12 17 20 21 20 21 20 18 18 19 19 19 19 17 17 18 18 18 18 19 19 19 20 20 18 17 15 14 14 15 17 19 19 19 20 21 22 23 22 22 24 24 25 27 27 26 25 24 24 23 22 22 22 21 19 16 16 16 14 12
33 29 26 28 30 33 34 32 28 26 25 27 29 28 26 24 22 22 20 17 14 12 10 8 9 11 13 16 18 20 21 20 18 17 18 18 18 18 17 17 17 17 16 17 18 17 17 18 18 17 16 15 14 15 15 17 20 22 22 21 19 21 23 22 22 22 22 23 27 28 28 27 26 24 24 23 24 24 25 25 22 19 17 16 15
30 28 28 30 32 32 32 31 28 26 26 27 27 27 25 22 20 17 15 12 11 11 9 8 10 11 11 13 16 18 19 19 17 16 16 17 18 18 18 17 16 16 17 16 14 12 12 14 14 15 15 15 16 17 18 19 20 23 25 25 22 21 22 22 22 23 22 22 24 26 27 29 28 25 23 23 23 24 25 26 25 23 19 16 16
30 31 32 31 32 34 33 29 27 26 25 25 25 24 23 22 18 14 11 10 10 11 9 9 10 11 11 12 14 16 17 18 17 16 15 16 17 17 17 17 16 16 15 13 11 10 10 11 12 14 15 16 17 19 20 21 21 21 23 25 25 24 23 22 21 20 20 21 20 20 22 24 24 24 23 23 22 22 23 24 25 25 23 20 19
33 34 34 33 34 36 32 26 25 25 23 22 23 22 20 20 18 14 11 11 13 13 12 11 10 9 10 12 13 16 18 18 17 16 15 16 17 17 17 16 15 14 12 11 11 11 11 11 12 13 15 17 19 21 22 24 24 24 24 24 23 22 21 21 17 14 15 16 14 14 15 14 15 17 20 22 23 23 23 23 24 24 23 23 22
35 35 35 35 35 36 31 25 23 22 21 21 22 21 18 18 17 16 14 13 13 12 11 10 9 9 10 11 12 15 17 17 15 15 14 14 16 17 17 17 17 15 12 11 12 12 11 11 11 12 14 16 18 19 20 21 22 23 23 22 21 20 20 20 17 15 15 14 13 13 13 13 13 13 14 17 19 19 20 22 23 23 23 23 22
36 35 34 34 35 34 29 24 23 21 19 20 21 20 18 18 16 16 15 12 9 9 9 8 9 10 11 11 11 11 12 12 13 13 13 12 14 16 16 16 16 14 11 11 11 11 10 11 10 11 13 15 16 16 16 16 15 14 14 14 14 14 14 13 14 14 14 13 13 14 13 13 13 13 13 14 13 13 17 20 22 23 24 23 22
35 35 33 33 34 33 27 23 23 20 18 19 19 17 17 17 13 12 13 10 7 8 9 9 9 11 11 10 10 9 8 8 9 11 11 10 10 11 9 7 8 9 9 9 10 10 10 11 11 13 14 15 15 13 12 11 11 10 10 10 10 9 8 6 6 8 9 9 11 11 11 11 11 12 13 12 11 12 16 20 21 22 23 23 22
35 35 33 33 34 32 25 20 18 15 16 18 16 13 15 15 11 8 9 8 8 9 9 10 10 10 10 10 8 7 7 6 6 8 9 8 8 9 8 8 7 7 8 10 10 10 10 9 9 9 8 8 9 9 8 9 9 10 10 10 11 10 9 7 7 7 8 9 9 10 10 10 10 11 10 10 11 12 13 13 14 16 19 21 21
35 35 34 33 33 29 21 15 12 11 14 16 14 11 11 11 9 8 9 9 9 10 10 10 11 10 9 9 8 6 6 6 6 7 7 7 8 10 12 14 13 11 10 10 10 9 7 5 5 6 6 6 7 8 9 10 10 11 12 13 13 12 10 9 9 9 10 11 12 12 13 12 12 12 12 12 12 12 10 10 10 10 12 15 15
35 36 34 32 30 26 18 13 10 8 11 14 12 10 10 10 10 10 11 10 10 11 11 12 12 11 9 8 6 5 6 7 7 7 7 7 8 9 11 12 12 10 10 10 10 10 8 7 8 9 9 8 8 8 10 11 12 13 14 15 14 15 15 14 13 13 12 12 13 13 14 14 14 15 14 12 12 11 11 11 11 10 9 10 11
35 34 32 28 27 24 16 11 9 7 9 12 12 11 11 12 10 9 10 11 12 12 12 12 12 11 9 8 7 6 6 7 7 7 8 8 9 10 12 12 12 11 11 11 12 13 10 8 8 9 8 8 7 7 9 11 12 14 15 14 13 12 12 11 11 12 10 10 11 12 12 13 14 15 15 13 12 12 12 12 13 12 10 9 10
34 31 29 26 26 23 15 9 9 8 7 8 9 11 13 15 14 12 12 14 15 15 15 13 12 11 11 12 11 8 5 5 5 6 6 8 10 12 11 11 11 11 11 12 13 11 8 7 6 6 6 6 6 5 7 9 10 9 10 10 9 7 5 5 6 6 5 5 8 10 9 10 12 14 15 15 15 13 13 16 17 14 12 11 12
33 30 28 26 26 24 15 8 7 6 6 6 7 7 9 12 14 15 16 15 15 16 17 16 13 12 13 14 13 10 7 6 6 5 6 8 9 8 6 5 6 8 11 11 9 6 5 6 5 4 4 4 4 4 5 6 5 5 5 6 5 4 4 4 4 4 4 5 6 7 7 7 9 11 12 13 13 12 12 16 18 15 13 13 13
33 31 29 26 26 23 15 7 5 5 5 5 6 6 6 7 9 12 16 16 14 14 16 16 15 14 15 16 15 11 8 8 9 8 7 8 5 2 3 3 5 9 9 7 4 3 3 4 3 3 3 3 2 2 3 3 3 3 3 3 4 4 3 4 6 7 6 5 5 5 5 5 6 8 9 10 10 11 11 12 14 14 13 13 14
34 31 28 26 26 22 13 6 5 5 5 5 6 6 6 7 6 7 10 13 15 15 15 14 12 13 16 19 20 16 9 7 8 7 4 2 4 6 6 6 5 4 3 2 1 1 2 2 2 2 2 2 2 2 2 2 2 2 2 2 3 3 3 4 6 7 6 5 4 4 4 4 5 6 7 7 8 9 10 10 11 12 14 14 15
33 30 27 26 26 21 12 6 4 4 4 5 5 6 6 6 5 5 6 8 11 12 12 9 5 4 3 6 12 13 8 4 4 3 2 5 6 5 4 4 4 6 7 5 3 2 3 3 4 3 3 3 2 2 2 2 2 2 3 3 3 3 3 3 3 3 3 3 4 4 4 4 4 5 5 6 6 7 8 10 11 11 12 15 16
32 28 26 26 24 19 12 6 4 3 3 4 5 5 5 4 4 5 6 7 8 8 7 6 6 6 7 6 4 5 4 1 2 2 3 4 3 2 1 3 5 6 6 4 3 4 4 4 4 4 4 3 2 2 2 2 1 2 2 2 2 2 2 2 2 1 2 3 3 3 4 4 3 3 4 5 5 6 7 8 8 8 9 11 14
30 27 26 26 24 19 12 7 4 4 3 3 3 3 3 3 4 5 5 6 8 7 5 5 6 5 2 3 4 4 4 1 1 4 5 4 5 4 4 4 4 3 3 3 4 4 4 4 4 4 4 4 3 2 2 1 1 1 1 1 1 2 1 1 1 1 1 2 2 3 4 5 5 4 4 5 6 6 6 6 7 7 8 7 7
29 26 26 26 25 19 12 8 6 6 4 3 3 2 2 3 3 4 4 5 6 7 5 4 5 5 4 4 3 1 5 5 6 6 4 3 4 5 5 4 4 4 4 4 4 4 4 4 4 4 4 4 3 2 1 1 1 1 1 1 1 1 1 2 2 1 1 1 2 2 3 4 5 4 4 4 5 5 5 5 6 6 7 7 7
28 27 27 27 24 18 12 9 7 6 5 3 2 3 3 2 2 3 3 3 4 5 4 4 5 4 4 5 6 6 5 5 4 3 3 4 5 5 3 3 5 5 5 4 4 5 5 3 3 3 3 3 3 2 1 1 0 1 1 1 0 0 1 1 1 0 0 0 1 1 2 2 3 3 3 4 5 5 4 5 5 5 6 6 5
28 28 28 27 22 16 13 9 6 5 4 3 2 3 3 2 2 2 2 2 3 3 3 4 5 4 4 6 8 8 8 7 5 4 4 5 5 4 2 3 5 6 6 4 3 4 4 3 3 3 3 3 3 3 2 1 1 1 1 1 0 0 0 1 1 1 1 1 1 1 1 1 2 2 3 3 4 4 4 4 4 5 5 5 5
28 26 26 24 20 16 13 10 7 5 5 4 4 4 4 4 4 2 2 2 2 2 2 3 3 3 4 6 7 7 6 6 5 5 6 5 4 3 2 3 4 5 6 5 4 4 3 3 3 4 4 4 4 3 3 3 2 1 1 1 0 0 1 1 1 1 2 1 1 1 1 1 1 2 3 3 3 4 4 4 4 4 5 5 5
27 25 24 22 18 15 12 9 7 7 5 5 5 4 4 4 4 4 3 3 2 2 2 2 3 3 3 3 4 4 4 3 4 5 5 4 4 4 4 4 4 4 5 5 5 4 3 4 4 4 4 5 5 4 4 3 2 1 1 1 0 0 1 1 1 2 3 3 3 3 2 2 2 2 2 3 3 3 4 4 4 4 4 5 5
25 24 24 21 17 15 13 10 8 7 6 5 5 4 4 4 3 3 4 3 3 3 2 1 3 4 3 3 4 5 4 2 3 4 5 4 4 4 4 4 4 4 4 4 4 5 4 5 5 4 4 5 4 4 3 2 2 2 1 1 1 0 0 0 2 4 4 3 4 4 5 5 4 2 2 3 2 3 4 4 4 4 4 5 5
23 23 22 20 17 15 13 11 10 8 7 7 6 5 4 4 3 3 3 3 3 2 2 2 2 3 4 4 5 5 5 4 3 3 4 4 4 4 4 4 4 5 4 4 4 4 5 5 5 4 5 5 4 4 3 2 2 1 1 1 0 1 2 1 2 4 4 4 5 5 6 6 4 2 2 3 3 3 3 3 4 4 4 5 4
22 21 20 19 18 16 14 13 12 11 10 9 7 6 5 5 4 4 4 3 2 2 2 2 2 2 4 4 4 4 6 6 4 3 3 3 3 4 4 4 5 5 5 5 5 5 5 5 5 4 4 4 4 4 3 2 1 1 1 1 1 2 3 3 3 4 5 5 6 6 5 6 5 3 2 3 3 3 3 3 3 4 4 4 4
20 20 20 19 19 17 16 15 14 12 12 11 9 8 7 6 5 5 5 4 3 3 2 2 1 2 3 3 3 4 6 6 3 2 2 3 4 5 5 5 5 5 5 5 5 5 5 5 4 4 4 4 3 3 3 2 1 1 1 1 2 3 3 4 4 4 4 6 7 6 6 6 6 4 4 4 3 3 3 3 3 3 4 4 5
19 19 20 19 18 18 17 16 15 14 13 12 11 10 9 7 6 5 4 4 4 3 2 2 2 2 2 3 5 6 6 5 4 4 4 4 4 5 5 5 5 5 5 5 5 5 5 5 5 4 4 4 4 4 4 4 3 3 3 3 3 4 4 5 5 5 4 5 6 6 7 7 6 6 6 6 4 3 4 4 3 3 4 4 5
20 19 19 18 18 18 17 16 15 15 13 12 12 11 10 9 7 6 5 5 4 4 3 3 4 3 3 4 6 8 7 7 6 5 4 4 5 5 5 5 5 5 5 5 6 6 6 6 5 5 5 5 5 5 5 6 5 5 5 5 5 5 5 5 6 5 5 5 6 7 7 7 6 7 8 7 6 5 6 6 4 4 4 4 4
21 21 19 18 18 17 17 16 16 15 14 14 13 12 11 10 8 7 6 5 5 4 4 4 5 5 5 5 6 7 8 7 7 5 5 5 5 5 5 5 5 5 6 6 6 7 7 7 7 7 7 7 7 7 7 7 7 7 7 7 7 7 7 7 7 6 5 6 6 7 7 7 7 6 7 7 7 7 7 7 5 4 4 4 4
22 22 20 19 18 17 16 17 17 16 15 15 14 13 12 11 9 8 7 6 5 5 4 4 5 5 6 6 6 7 7 7 7 7 6 6 5 5 5 6 6 6 6 6 7 7 7 7 7 7 7 8 8 8 8 8 8 8 8 8 8 8 8 8 8 7 6 6 6 7 7 7 7 7 6 7 7 7 7 7 7 6 5 4 4
22 22 21 20 20 19 18 18 17 16 15 15 13 13 13 12 10 9 8 7 6 6 5 5 5 6 6 6 6 7 7 7 7 7 7 7 7 6 6 6 6 6 6 7 7 7 7 7 8 8 8 9 9 9 9 9 9 9 9 8 8 8 8 8 8 8 8 7 7 7 7 7 7 7 7 7 7 7 7 7 7 7 6 5 4
22 22 20 20 21 20 19 19 19 17 17 16 14 13 13 12 11 10 9 8 8 7 6 6 6 6 6 6 6 6 6 6 7 7 7 7 8 8 8 7 7 7 7 7 7 7 7 8 8 8 9 9 9 10 10 10 9 9 9 8 8 8 8 8 8 8 9 9 8 8 8 7 7 7 6 6 7 7 6 7 7 7 6 6 5
Wind_Direction
317 312 310 302 291 280 267 255 246 241 237 234 229 227 227 227 227 226 221 217 216 220 226 226 226 227 227 227 228 228 227 225 223 222 225 229 232 235 238 239 240 239 236 231 226 222 222 221 222 222 220 220 226 233 236 238 243 250 256 257 256 253 250 251 257 266 270 275 282 288 299 316 318 308 294 282 278 292 302 320 318 290 269 262 250
321 318 314 305 296 289 276 259 247 240 236 233 228 225 225 227 226 225 222 219 218 222 225 225 227 228 228 228 229 228 227 226 224 223 226 228 230 233 236 238 240 238 235 233 229 223 222 225 225 222 223 228 230 233 237 240 243 247 251 254 257 254 249 249 254 262 268 271 276 280 291 306 310 311 300 269 263 274 265 299 317 299 308 306 294
322 320 318 311 303 294 281 263 249 242 236 232 228 224 224 226 225 224 222 219 219 221 223 225 227 228 229 229 228 228 228 227 226 225 227 228 230 233 236 238 239 237 235 234 231 227 225 226 227 223 222 228 231 232 236 239 241 245 246 248 254 255 253 251 253 261 266 266 270 275 285 299 297 302 305 284 260 258 264 278 275 260 322 332 317
322 319 318 315 309 297 283 268 253 244 237 231 228 224 223 224 224 224 223 218 217 221 223 225 227 227 228 228 229 230 229 228 227 227 228 229 232 234 236 238 239 236 234 233 231 228 226 225 226 222 220 224 228 231 233 235 236 240 245 247 251 254 255 253 252 257 264 264 264 268 275 289 289 291 302 302 274 255 265 262 235 246 303 322 325
321 319 317 317 312 299 285 272 256 246 239 232 228 224 222 222 223 225 225 220 218 221 223 225 227 228 229 230 231 231 230 229 228 228 229 230 233 236 237 237 237 234 233 233 231 229 225 225 224 219 218 221 225 227 229 232 232 235 241 246 249 252 253 254 253 253 257 260 261 264 267 274 284 289 295 296 281 258 257 252 243 258 276 265 293
317 318 318 318 314 302 288 274 260 250 241 233 227 224 222 221 222 224 226 221 218 221 225 227 228 230 231 232 232 231 229 228 228 230 230 230 233 237 237 235 234 233 233 231 231 229 225 225 223 217 215 218 221 221 223 227 229 231 234 238 244 250 251 253 254 252 254 256 256 260 264 266 274 279 281 287 284 267 257 252 247 250 253 252 265
315 318 320 320 316 306 294 281 267 253 243 233 227 224 222 221 220 223 224 220 218 222 226 229 231 232 233 233 232 230 228 228 230 232 232 233 235 236 233 232 231 232 233 232 231 231 228 227 225 221 222 225 228 229 226 223 225 227 230 233 236 241 246 250 252 250 250 252 252 254 259 262 265 266 271 284 288 279 264 252 245 241 233 229 239
314 317 320 322 318 311 303 291 274 256 244 235 228 224 222 220 220 222 221 217 218 222 226 229 232 233 233 232 229 227 227 229 233 234 235 234 232 230 228 228 230 231 232 233 234 233 233 235 237 238 238 239 239 239 235 229 225 226 228 228 228 230 236 241 244 246 246 246 246 247 252 258 262 262 265 274 278 274 263 253 254 253 239 231 233
309 314 319 321 321 316 309 296 278 259 245 235 228 224 223 220 220 222 220 217 219 223 227 229 231 232 231 229 228 228 229 233 234 232 231 228 225 227 229 228 229 231 231 233 234 232 234 241 246 246 246 247 246 246 245 241 237 234 227 220 221 222 226 230 234 237 240 243 242 240 244 251 256 259 258 259 261 262 264 263 260 260 261 259 251
305 313 319 321 322 321 314 300 281 260 245 236 229 225 223 221 221 223 220 218 220 223 225 227 228 229 230 230 231 232 233 235 234 230 227 226 223 225 228 228 229 232 231 233 235 233 236 246 252 250 248 251 253 253 251 246 242 242 236 223 218 216 215 221 227 230 232 236 237 237 239 243 247 250 251 253 257 264 277 283 274 266 268 270 265
310 315 320 322 322 322 316 302 282 262 247 238 231 226 223 220 221 222 219 218 220 221 222 224 225 227 231 234 235 236 237 236 234 234 234 234 232 228 228 229 229 232 233 235 237 237 238 244 251 252 249 251 256 256 252 244 240 240 238 230 225 224 218 215 219 224 229 232 234 234 234 239 243 245 245 249 253 261 271 277 276 276 274 272 270
319 317 319 322 321 320 316 304 284 264 249 239 232 227 223 221 220 219 218 218 217 217 219 222 225 228 232 235 235 237 239 238 240 242 242 241 240 235 234 234 234 234 234 235 238 241 241 241 245 251 252 251 256 260 258 251 243 239 238 234 230 230 230 227 223 220 220 224 229 232 233 235 240 240 239 241 247 256 265 267 270 275 272 270 271
321 317 318 321 321 320 317 305 285 265 251 240 232 227 222 221 220 218 220 218 213 215 219 222 226 229 229 233 236 238 241 243 245 247 247 246 244 238 235 237 240 241 240 239 240 241 241 241 241 246 252 257 259 262 262 259 252 243 240 239 236 233 232 232 230 225 221 221 222 226 228 229 233 237 235 236 240 251 262 266 269 270 268 268 271
323 319 317 318 319 320 318 307 287 268 252 240 231 226 223 221 220 220 221 217 211 214 218 221 226 229 232 238 241 243 246 247 248 249 249 248 245 239 236 236 238 241 241 240 238 236 236 237 237 241 249 255 256 255 255 255 252 244 238 237 237 237 235 233 231 227 225 226 228 229 229 229 230 232 232 233 236 240 249 258 265 268 269 269 271
322 320 317 315 317 319 316 307 291 271 253 239 230 226 223 221 219 220 221 217 213 217 220 223 228 232 237 243 245 248 251 251 250 250 249 247 243 241 239 237 236 237 237 235 235 235 236 237 237 241 246 246 245 246 250 250 246 242 241 239 236 236 237 236 233 230 228 229 234 238 240 240 238 238 237 235 235 236 240 248 256 264 270 272 272
319 321 319 317 319 321 317 307 291 271 251 237 229 225 223 221 219 220 220 217 215 218 221 223 228 232 239 244 246 250 255 255 251 249 249 246 243 241 240 239 238 237 237 237 237 238 238 238 239 243 246 242 235 238 245 248 245 242 243 246 244 241 240 239 236 234 233 233 236 242 248 249 247 246 245 239 234 233 235 240 245 252 261 266 266
320 321 320 320 324 324 319 308 291 272 251 235 229 225 222 221 219 219 220 217 214 216 218 221 227 234 241 244 246 251 257 259 254 250 249 245 241 239 238 237 236 237 237 236 236 237 238 238 240 243 244 237 229 230 233 235 239 240 240 243 245 247 249 247 243 241 240 240 242 245 249 249 246 244 244 239 233 227 225 229 233 235 241 250 256
321 320 322 326 328 324 319 310 294 275 254 237 230 226 222 220 219 220 221 219 215 215 218 221 228 236 242 245 247 251 257 261 257 251 248 244 238 235 234 233 233 234 233 234 235 236 237 237 237 238 238 233 229 230 230 230 233 236 239 241 242 246 252 253 250 247 244 243 245 247 249 249 246 244 243 240 235 227 219 219 219 220 227 235 244
321 325 329 330 327 323 318 311 297 277 258 244 234 227 222 220 220 221 221 219 218 217 217 221 228 236 242 245 248 251 255 260 259 252 247 242 235 231 229 229 231 231 230 232 232 228 227 230 230 229 231 232 234 236 238 238 235 235 239 240 237 243 250 251 251 251 247 243 244 245 247 249 248 247 246 244 241 235 227 222 217 214 220 225 229
331 335 333 329 327 324 319 312 299 280 263 250 237 227 222 219 217 216 215 213 217 219 215 220 232 240 243 245 248 249 250 255 257 251 245 241 233 227 225 226 228 227 226 226 221 210 213 222 226 227 231 236 241 244 245 246 243 239 237 233 232 244 253 255 257 256 250 249 250 248 248 249 248 247 246 244 244 242 238 233 226 221 220 220 221
339 336 329 326 326 324 318 310 300 286 267 251 238 226 221 218 215 209 204 204 210 213 215 224 238 245 247 246 247 247 247 252 256 252 246 243 236 229 227 227 227 227 224 219 213 211 216 224 230 234 238 242 247 249 251 253 253 249 240 235 241 253 257 257 260 256 247 248 251 250 251 252 250 248 247 244 242 239 237 237 232 228 226 225 225
336 331 327 323 321 320 315 308 300 287 267 247 233 222 216 216 213 206 203 206 212 216 221 231 240 247 250 248 246 250 254 257 258 252 244 241 240 234 228 226 226 224 218 213 215 221 225 228 232 238 245 250 251 251 252 253 254 255 252 248 251 257 254 250 249 239 230 233 234 236 240 241 241 245 246 246 244 239 234 235 234 232 231 231 232
330 326 323 320 318 315 311 307 299 284 264 241 226 216 210 209 208 206 206 207 212 219 223 230 238 246 252 251 248 254 260 259 255 249 241 237 240 237 230 229 227 217 209 211 216 221 228 233 237 243 247 249 249 250 251 251 251 253 254 255 258 258 254 251 245 231 222 221 220 222 225 223 225 232 237 243 245 241 235 233 231 230 231 232 234
325 321 319 317 316 313 310 307 298 282 258 234 220 211 207 204 203 206 209 206 205 214 218 223 234 242 249 252 248 248 253 253 250 245 234 228 234 235 232 233 227 211 203 214 221 225 232 234 237 245 247 247 250 253 256 256 254 255 255 257 257 254 251 252 250 241 228 218 215 218 219 217 220 225 231 237 240 238 239 239 236 232 231 232 234
323 320 318 317 316 313 310 306 295 278 252 228 215 206 203 203 200 202 205 203 201 211 217 222 230 236 242 247 247 241 240 245 245 234 222 223 235 237 237 245 236 217 215 225 228 231 237 241 245 250 250 248 247 247 246 245 244 245 245 244 246 249 250 255 259 251 237 224 219 219 218 218 223 230 235 236 235 241 249 251 248 242 237 235 236
324 321 319 318 316 313 309 302 290 271 245 227 214 206 203 201 198 196 199 202 204 211 219 223 226 233 237 239 242 240 234 234 229 216 212 224 243 246 251 259 259 250 245 241 237 240 248 251 251 248 241 233 229 227 228 236 246 254 259 262 266 271 273 270 264 259 254 248 240 232 227 227 231 238 236 229 231 241 247 249 249 246 241 238 237
324 322 320 318 316 313 307 297 282 257 235 222 211 207 206 200 195 197 199 201 204 209 217 221 222 227 230 231 235 235 220 211 206 201 206 227 244 249 253 256 259 260 254 246 244 248 255 256 248 246 243 238 241 251 257 263 271 277 278 280 281 278 274 270 267 265 265 264 262 258 253 248 247 249 245 233 229 234 232 227 232 238 238 235 233
325 321 318 316 314 312 305 291 277 246 224 218 211 203 203 202 203 208 206 203 205 210 215 219 219 220 220 219 217 208 197 194 197 201 211 229 241 244 245 247 247 242 236 235 238 238 240 244 248 255 261 259 260 266 269 273 280 281 279 279 279 275 272 271 268 265 263 263 263 261 259 254 250 249 247 236 227 228 225 219 223 229 226 219 220
325 320 317 315 313 312 305 283 268 246 220 219 216 211 214 213 210 214 217 215 216 218 219 220 219 217 216 213 203 193 195 200 205 216 226 232 233 229 223 221 222 225 229 232 231 228 229 234 239 243 247 249 252 258 263 269 275 277 275 273 269 268 269 265 257 254 252 251 249 247 247 247 244 243 243 239 235 234 224 216 222 222 208 201 212
325 320 318 316 314 313 307 279 261 248 221 215 217 219 226 228 224 227 236 238 237 234 229 228 226 221 218 216 207 196 199 210 214 219 224 227 231 229 224 222 226 228 224 220 215 211 206 208 213 219 224 232 240 244 254 263 267 269 268 262 253 252 253 242 240 248 247 242 242 239 237 238 239 240 242 243 243 238 223 219 225 222 202 198 214
323 321 319 317 316 314 306 278 256 243 220 214 214 214 228 236 235 237 243 251 253 242 232 232 233 226 222 220 214 209 224 239 234 228 233 238 238 233 227 226 212 184 177 180 180 178 189 205 210 213 220 229 235 237 247 256 254 250 252 243 230 230 235 230 237 251 253 250 246 239 234 234 237 241 243 243 246 245 230 220 219 215 204 202 213
323 321 319 317 318 316 305 276 258 247 219 211 211 209 222 237 241 242 241 243 246 240 230 229 230 227 228 229 223 222 241 249 240 242 252 247 233 177 150 155 134 137 152 163 152 151 214 233 220 208 213 219 220 228 238 243 238 241 248 235 219 220 227 233 240 240 241 249 250 243 239 238 238 243 247 247 250 255 250 231 213 202 202 209 215
324 322 321 321 320 317 306 276 259 245 219 211 209 209 219 231 242 249 241 235 237 235 227 225 228 230 236 238 231 225 228 230 226 236 248 208 131 109 122 135 129 143 189 251 322 242 237 229 188 177 175 160 165 200 220 232 246 255 259 249 236 235 235 234 235 234 235 246 254 251 250 248 248 249 251 250 250 250 254 253 235 213 204 207 214
326 323 323 324 323 320 309 285 269 251 229 221 213 212 220 227 235 245 235 227 233 233 223 210 190 166 194 228 218 205 190 180 208 221 138 109 107 108 139 186 236 262 273 288 288 228 197 173 161 156 150 150 167 199 215 224 234 243 254 255 252 254 250 234 230 234 241 247 251 254 257 258 258 256 252 252 254 250 249 255 255 241 221 211 212
329 328 328 329 328 324 314 297 281 262 241 226 218 220 223 222 227 236 232 226 227 225 211 187 162 126 90 79 112 147 147 180 237 196 131 135 155 178 235 252 262 271 277 266 220 186 172 162 153 149 156 163 167 179 197 221 226 225 245 259 257 262 261 238 233 251 253 244 245 247 251 253 257 261 260 256 256 259 256 254 258 264 255 232 219
331 332 333 334 333 327 319 311 297 277 261 245 234 229 221 220 224 226 233 237 231 223 211 194 191 187 141 100 86 69 57 26 192 134 132 180 226 256 278 268 246 236 223 200 180 170 167 163 155 153 156 153 148 158 178 199 215 211 217 240 255 270 278 264 261 267 248 237 243 244 245 248 247 250 259 259 252 256 265 268 268 273 278 275 257
333 335 335 336 334 328 322 316 307 298 287 265 255 252 233 229 232 226 228 239 234 228 223 209 207 218 220 210 209 95 85 101 117 120 137 215 273 303 296 255 217 194 174 162 163 167 164 157 154 155 150 143 142 148 164 173 195 207 190 186 217 286 298 282 270 265 236 232 249 254 252 254 253 250 254 261 258 257 263 273 281 280 277 285 293
335 335 335 336 334 330 327 324 318 314 307 289 284 285 263 239 237 234 234 241 237 233 230 218 214 220 225 232 237 225 189 169 167 183 239 288 324 333 304 220 193 181 168 157 162 166 158 147 151 150 140 142 147 144 144 166 205 195 181 175 172 240 297 292 283 15 42 261 275 282 268 263 266 263 255 255 259 262 267 274 284 290 291 287 281
337 335 336 338 338 335 333 332 333 334 334 333 327 313 301 297 282 254 251 256 250 243 235 223 219 219 223 234 238 229 219 219 229 245 273 299 320 322 264 189 181 179 172 162 160 161 154 146 155 154 148 150 150 148 151 151 135 146 155 135 123 157 332 343 348 3 357 330 315 320 301 286 277 265 260 260 257 257 266 273 273 276 285 287 281
338 336 337 339 340 339 338 337 340 346 348 346 341 333 326 325 319 303 294 280 264 265 260 241 238 243 241 238 233 224 223 234 241 247 262 273 274 264 220 189 185 181 175 169 167 165 162 160 163 164 166 164 159 156 154 143 122 121 148 125 165 173 76 55 31 16 20 11 351 343 327 319 307 268 262 268 266 264 266 266 268 270 269 273 280
339 338 338 339 340 340 340 343 346 348 348 346 343 339 331 329 326 318 311 303 288 285 281 259 260 264 254 238 224 213 217 240 246 242 242 238 228 218 204 193 189 184 179 177 175 173 176 181 180 181 183 179 173 165 154 142 129 127 113 89 116 182 75 72 55 41 43 37 21 17 20 17 13 343 300 287 280 281 277 266 263 268 263 262 269
340 340 340 341 342 342 343 344 342 338 339 340 339 332 324 321 321 314 309 303 294 289 280 265 273 267 251 236 227 214 205 219 236 225 213 205 205 204 201 198 198 194 189 187 185 184 188 191 192 193 193 189 183 174 162 151 140 137 119 86 83 53 9 55 48 41 40 31 17 20 27 31 29 8 347 340 312 289 283 280 278 273 264 263 264
341 343 343 342 343 343 342 341 338 337 338 338 334 330 325 317 309 305 298 286 281 282 267 256 263 246 230 240 246 228 208 201 195 187 190 197 200 198 202 208 209 203 199 196 194 192 193 194 197 200 198 194 191 187 182 177 166 144 98 36 22 20 18 18 25 29 30 20 10 11 18 22 19 360 351 4 353 314 288 285 290 283 273 273 272
343 345 345 345 346 346 344 343 342 341 339 336 334 335 335 328 320 315 304 289 282 277 260 253 249 214 211 234 248 220 197 186 169 162 184 201 202 201 205 210 206 202 202 203 201 200 198 198 201 204 203 202 201 200 199 198 185 165 17 356 335 350 1 4 6 11 17 12 7 5 3 3 3 349 335 356 360 339 305 290 297 297 286 283 283
344 346 347 347 347 347 347 347 345 344 344 344 345 346 345 340 335 327 317 308 302 290 275 270 261 212 200 208 209 194 187 183 180 197 215 211 205 206 209 210 206 204 204 202 202 203 203 203 206 209 213 219 223 222 229 238 238 257 305 320 318 327 335 337 341 350 357 359 360 359 354 355 357 348 336 343 348 331 314 306 303 303 295 286 281
344 345 347 348 348 348 349 349 347 348 349 349 348 347 347 347 344 337 327 319 310 298 291 289 273 252 232 222 220 217 216 221 237 247 243 229 217 212 212 211 209 210 211 209 208 209 210 213 217 219 223 234 242 244 251 263 268 274 288 297 303 313 319 321 324 329 338 346 349 348 345 347 348 346 349 353 348 332 337 345 331 308 301 294 285
345 345 346 348 349 350 350 350 350 350 350 349 348 349 348 348 348 345 336 327 317 302 292 287 277 264 253 242 238 238 241 243 245 246 244 237 226 221 219 218 216 218 221 220 218 220 220 222 227 230 233 241 247 248 254 262 267 273 280 285 290 298 303 306 309 314 321 331 336 337 335 336 337 340 347 351 346 339 346 352 342 320 310 305 290
347 347 347 347 349 350 352 353 353 353 352 350 349 349 349 349 351 351 347 340 330 316 302 296 289 279 269 259 250 245 244 242 239 237 236 234 232 229 228 226 224 227 229 228 228 228 228 228 231 234 237 241 245 249 255 260 265 270 274 276 280 286 289 291 294 299 307 318 325 326 325 323 323 329 335 340 342 344 346 348 342 333 329 321 302
348 349 348 348 349 350 351 352 353 353 353 351 350 350 352 351 351 353 354 350 342 334 323 313 307 298 289 278 264 254 248 243 239 238 238 238 238 236 232 230 231 233 235 237 237 235 234 235 237 239 241 244 246 250 255 259 264 268 271 272 274 276 278 282 286 289 294 303 311 316 317 315 314 317 320 326 333 337 340 344 344 341 338 331 311
349 350 350 350 350 350 350 351 352 351 351 352 351 351 351 351 351 354 356 353 351 350 343 331 325 316 306 297 285 272 261 251 244 243 243 241 241 241 240 241 242 241 242 245 246 244 244 246 246 246 247 248 249 251 254 257 261 265 269 272 274 271 270 272 276 282 288 294 299 304 308 308 309 309 309 313 321 327 331 338 342 343 342 339 326
350 351 351 350 351 351 351 351 351 351 351 352 352 350 350 351 350 351 352 352 352 353 351 345 341 335 323 314 302 288 278 266 254 251 249 246 245 246 247 248 251 253 254 256 255 253 253 254 253 253 254 253 253 255 255 256 258 261 264 267 269 267 267 270 271 275 280 284 288 294 299 301 303 306 304 302 308 316 321 328 334 339 343 343 338